This demonstration page uses our WeatherBlox Daily Observations layout. Learn more.

Left ArrowRight Arrow

38.20091, -84.87328

Hourly Observations for February 13, 2022

Temp ( °F °C ) Dew Point ( °F °C ) Humidity (%) Winds ( mph kmh ) Pressure ( in mb ) Visibility ( mi km ) Precip ( " mm )
12:53 am 00:53 undefined 27 -2.8 14 -10 58 58 undefined N/A 30.30 1026 N/A 0.00 0.00
1:53 am 01:53 undefined 26 -3.3 15 -9.4 63 63 NW 7 11 30.30 1026 10 16 0.00 0.00
2:02 am 02:02 Cloudy 26 -3.3 16 -8.9 66 66 W 7 11 30.33 1027 10 16 0.00 0.00
2:53 am 02:53 Cloudy 26 -3.3 14 -10 60 60 WNW 8 13 30.29 1026 10 16 0.00 0.00
3:53 am 03:53 Cloudy 25 -3.9 14 -10 63 63 W 5 7 30.29 1026 10 16 0.00 0.00
4:53 am 04:53 undefined 24 -4.4 15 -9.4 68 68 undefined N/A 30.28 1026 N/A 0.00 0.00
5:27 am 05:27 Cloudy 23 -5 15 -9.4 72 72 WNW 10 17 30.32 1027 10 16 0.00 0.00
5:53 am 05:53 Cloudy 23 -5 14 -10 68 68 WNW 8 13 30.29 1026 10 16 0.00 0.00
6:53 am 06:53 Cloudy 23 -5 13 -10.6 65 65 WNW 5 7 30.29 1026 10 16 0.00 0.00
7:53 am 07:53 Cloudy 22 -5.6 11 -11.7 63 63 WNW 6 9 30.29 1026 10 16 0.00 0.00
8:53 am 08:53 Cloudy 22 -5.6 10 -12.2 60 60 W 7 11 30.31 1026 10 16 0.00 0.00
9:27 am 09:27 Mostly Sunny 23 -5 10 -12.2 57 57 WNW 6 9 30.34 1027 10 16 0.00 0.00
9:53 am 09:53 Sunny 24 -4.4 11 -11.7 57 57 Calm 30.30 1026 10 16 0.00 0.00
10:53 am 10:53 Mostly Sunny 26 -3.3 11 -11.7 53 53 NW 5 7 30.30 1026 10 16 0.00 0.00
11:53 am 11:53 Sunny 28 -2.2 10 -12.2 47 47 WNW 6 9 30.28 1026 10 16 0.00 0.00
12:53 pm 12:53 Sunny 30 -1.1 12 -11.1 47 47 SW 7 11 30.26 1025 10 16 0.00 0.00
1:53 pm 13:53 Sunny 32 0 11 -11.7 41 41 Calm 30.20 1023 10 16 0.00 0.00
2:53 pm 14:53 Mostly Cloudy 32 0 11 -11.7 41 41 WSW 5 7 30.18 1022 10 16 0.00 0.00
3:53 pm 15:53 Cloudy 34 1.1 13 -10.6 42 42 Calm 30.17 1022 10 16 0.00 0.00
4:53 pm 16:53 Cloudy 34 1.1 13 -10.6 42 42 W 5 7 30.17 1022 10 16 0.00 0.00
5:53 pm 17:53 Cloudy 33 0.6 13 -10.6 43 43 VRB 7 11 30.17 1022 10 16 0.00 0.00
6:53 pm 18:53 Cloudy 32 0 13 -10.6 45 45 WNW 13 20 30.19 1022 10 16 0.00 0.00
7:41 pm 19:41 Cloudy with Light Snow 27 -2.8 21 -6.1 78 78 NNW 12 19 30.26 1025 2 3 0.00 0.00
7:46 pm 19:46 Cloudy with Light Snow 27 -2.8 22 -5.6 81 81 NNW 9 15 30.26 1025 2 3 0.00 0.00
7:53 pm 19:53 Cloudy with Light Snow 26 -3.3 21 -6.1 81 81 NNW 13 20 30.24 1024 3 4 0.00 0.00
8:00 pm 20:00 Cloudy with Light Snow 26 -3.3 21 -6.1 81 81 NNW 12 19 30.26 1025 5 8 0.00 0.00
8:53 pm 20:53 Cloudy 26 -3.3 18 -7.8 71 71 N 9 15 30.25 1024 10 16 0.00 0.00
9:51 pm 21:51 Cloudy 25 -4 19 -7 80 80 NNW 8 13 30.29 1026 10 16 0.00 0.00
9:53 pm 21:53 Cloudy 25 -3.9 19 -7.2 78 78 N 6 9 30.27 1025 9 14 0.00 0.00
10:17 pm 22:17 Cloudy with Light Snow 24 -4.4 17 -8.3 75 75 N 8 13 30.30 1026 6 10 0.00 0.00
10:53 pm 22:53 Cloudy 24 -4.4 15 -9.4 68 68 NNW 8 13 30.27 1025 10 16 0.00 0.00
11:53 pm 23:53 Cloudy 23 -5 14 -10 68 68 NW 9 15 30.28 1025 10 16 0.00 0.00

Powered by AerisWeather